Total_Precipitation_Accumulation
1.18 1.42 1.47 1.30 1.41 1.78 1.23 1.04 1.37 1.30 1.14 1.30 1.06 1.01 1.14 1.11 1.02 0.83 1.52 1.45 1.29 1.33 1.58 2.18 2.34 2.48 2.43 2.22 2.14 2.34 2.24 2.22 2.27 2.36 2.62 2.86 2.93 2.80 2.30 1.75 1.45 1.53 1.47 1.75 1.80 1.18 2.18 1.65 1.47 1.09 1.23 1.98
1.06 2.17 1.39 1.45 1.46 1.98 2.92 2.75 1.43 1.51 1.60 1.55 1.19 1.28 1.07 1.49 1.59 1.37 1.31 1.47 1.30 1.38 1.39 1.37 1.27 1.74 1.92 2.07 1.99 1.94 1.84 1.99 2.04 1.94 1.96 2.07 1.95 1.96 2.12 2.28 2.43 2.35 1.89 1.46 1.30 1.40 1.23 2.20 2.24 1.98 1.57 1.10
1.72 2.36 1.79 1.93 2.07 1.65 1.48 2.02 2.46 2.32 1.58 1.84 2.33 1.87 1.58 1.19 1.48 1.36 0.94 0.77 0.83 0.65 0.72 0.67 0.75 0.94 1.46 2.02 1.74 1.91 1.86 1.78 1.85 2.06 1.97 1.76 1.94 1.86 1.64 1.62 1.49 1.44 1.47 1.29 1.27 1.26 1.37 1.33 1.38 1.06 1.09 1.40
1.91 1.64 1.43 1.81 1.72 1.60 1.61 1.84 1.68 1.87 2.41 2.16 1.90 1.59 2.11 2.35 1.84 1.19 0.84 0.84 0.67 0.86 0.50 0.53 0.37 0.43 0.63 0.82 1.20 1.52 1.71 1.62 1.64 1.69 1.87 1.91 1.68 1.67 1.59 1.62 1.52 1.54 1.42 1.45 1.26 1.17 1.11 1.68 2.01 1.68 1.68 1.70
1.49 1.37 2.02 1.15 1.31 1.30 1.37 1.83 1.53 1.65 1.57 1.71 2.17 2.01 1.32 1.66 1.51 1.27 1.11 0.84 0.81 0.74 0.64 0.54 0.51 0.46 0.53 0.56 0.69 0.89 1.01 1.31 1.54 1.73 1.67 1.71 1.78 1.76 1.52 1.57 1.87 1.70 1.79 1.47 1.30 1.36 1.44 1.80 1.61 1.91 1.87 1.43
1.67 1.35 1.00 1.20 1.75 1.47 1.32 1.19 1.36 1.48 1.41 1.51 1.40 1.22 1.63 1.41 1.67 1.42 1.14 1.02 0.76 0.81 0.73 0.70 0.53 0.60 0.52 0.54 0.69 0.82 1.20 1.19 1.28 1.63 1.95 1.83 1.68 1.44 1.40 1.70 1.64 1.87 1.91 1.76 1.65 1.75 1.60 1.87 1.49 1.40 1.35 1.43
1.64 0.75 0.77 1.28 1.36 1.33 0.94 1.13 1.28 1.14 1.45 1.10 1.53 1.42 1.10 0.89 0.75 0.87 0.88 1.01 1.04 0.99 0.95 0.91 0.91 0.62 0.60 0.50 0.62 0.79 0.80 1.10 1.37 1.76 1.53 1.60 1.53 1.67 1.87 1.62 1.58 1.83 1.83 2.27 1.95 2.47 2.28 2.21 2.24 1.79 2.12 1.35
1.93 1.63 1.41 1.26 1.81 1.29 1.17 0.96 1.29 1.13 1.38 1.64 0.85 1.57 1.07 1.03 0.99 1.03 1.00 0.80 0.92 0.94 0.97 0.73 0.63 0.65 0.81 0.65 0.71 0.84 1.06 1.24 1.17 1.44 1.45 1.87 1.34 1.59 1.44 1.61 1.57 2.00 2.10 2.01 1.86 1.65 1.78 1.80 1.82 1.65 1.77 1.57
2.13 2.38 1.45 1.77 1.77 1.18 1.30 0.87 0.63 0.75 0.83 1.08 1.13 1.06 1.15 1.18 1.08 0.93 0.99 0.73 0.69 0.63 0.60 0.71 0.54 0.61 0.65 0.76 0.69 0.69 1.12 1.27 1.12 1.18 1.35 1.27 1.30 1.47 1.45 1.39 1.35 1.45 1.84 1.72 1.78 1.78 1.67 1.64 1.57 1.40 1.37 1.43
1.65 2.03 2.07 1.60 1.79 1.89 1.59 1.80 1.60 0.87 0.97 1.02 1.21 0.91 1.21 0.97 0.92 1.03 0.85 0.68 0.66 0.68 0.81 0.56 0.87 0.70 1.10 0.99 1.17 0.98 1.40 1.15 1.41 1.22 1.27 1.36 1.34 1.17 1.06 1.19 1.33 1.50 1.60 1.76 1.73 1.57 1.43 1.46 1.48 1.54 1.56 1.49
2.33 2.20 2.24 2.68 2.61 1.80 1.98 1.62 1.30 1.06 1.12 1.15 0.84 1.20 1.04 1.32 1.01 0.94 1.11 0.93 1.06 0.65 0.77 0.87 0.88 0.87 0.95 0.77 0.97 0.98 1.04 1.10 1.00 1.04 1.05 1.02 1.08 1.64 2.06 1.72 1.57 1.45 1.29 1.17 1.24 1.37 1.50 1.48 1.39 1.44 1.64 1.71
2.28 1.69 1.88 2.29 2.37 3.21 2.76 2.86 2.42 1.67 1.50 1.68 1.58 1.39 1.31 1.33 1.45 1.52 1.71 1.12 1.04 1.41 1.46 1.21 1.45 1.09 0.99 0.88 1.01 0.88 1.14 1.15 1.37 1.70 2.06 1.87 1.86 1.60 1.76 1.48 1.37 1.26 1.23 1.19 1.20 1.22 1.42 1.60 1.56 1.49 1.45 1.40
1.95 1.90 1.75 2.16 2.23 1.88 2.04 1.94 2.41 2.39 2.45 2.11 1.75 1.41 1.27 1.42 1.17 1.19 1.18 1.61 1.47 1.36 1.42 1.35 1.46 1.50 1.54 1.57 1.57 1.64 1.48 1.58 1.51 1.61 1.69 1.53 1.36 1.27 1.25 1.10 1.04 1.06 1.03 1.13 1.27 1.21 1.22 1.31 1.41 1.45 1.51 1.43
1.30 1.64 1.76 1.69 1.71 1.85 1.71 2.03 2.06 1.94 2.22 2.23 2.02 1.95 2.05 1.81 1.58 1.38 1.41 1.45 1.43 1.58 1.83 1.64 1.47 1.56 1.48 1.51 1.46 1.25 1.62 1.34 1.25 1.20 1.33 1.26 1.20 1.22 1.18 1.14 1.14 1.22 1.29 1.19 1.25 1.34 1.33 1.25 1.22 1.30 1.40 1.48
1.27 1.21 1.51 1.64 1.83 1.63 1.47 1.72 1.82 2.12 1.94 1.80 1.81 1.92 2.01 2.35 2.35 2.23 2.02 2.17 1.74 1.66 1.53 1.58 1.55 1.49 1.40 1.44 1.40 1.68 1.48 1.33 1.13 1.15 1.18 1.11 1.09 1.09 0.95 0.96 1.00 0.97 0.95 1.01 1.05 1.14 1.24 1.38 1.35 1.29 1.39 1.30
1.22 1.08 1.31 1.39 1.41 1.84 1.86 1.74 1.89 1.77 1.62 2.07 2.43 1.70 1.48 1.26 1.68 1.45 1.59 1.75 1.58 1.62 1.64 1.60 1.62 1.65 1.57 1.53 1.47 1.59 1.53 1.37 1.38 1.30 1.31 1.27 1.10 1.08 0.98 0.92 0.87 0.93 0.93 0.89 0.91 0.99 1.00 1.03 1.18 1.02 0.99 1.01
1.41 1.45 1.19 1.24 1.13 1.29 1.79 1.89 1.82 1.82 1.69 1.91 1.90 2.04 2.00 2.46 2.20 1.89 1.65 1.65 1.48 1.43 1.40 1.57 1.58 1.55 1.65 1.59 1.69 1.82 1.64 1.47 1.45 1.23 1.02 1.10 0.99 1.07 1.00 1.06 0.99 0.90 0.82 0.85 0.82 0.73 0.81 0.94 0.97 1.08 1.12 1.07
1.56 1.36 1.25 1.70 1.22 1.33 1.26 1.52 1.64 1.90 1.72 1.34 1.44 1.60 1.66 1.70 1.36 1.49 1.45 1.39 1.41 1.37 1.50 1.53 1.42 1.46 1.33 1.25 1.25 1.25 1.14 1.28 1.28 1.32 1.14 1.12 0.99 0.91 0.89 0.81 0.79 0.72 0.69 0.66 0.64 0.66 0.64 0.61 0.78 0.82 0.87 1.05
1.92 1.72 1.70 1.61 1.49 1.59 1.52 1.59 1.55 1.51 1.42 1.70 1.53 1.54 1.58 1.34 1.36 1.17 1.12 1.38 1.30 1.39 1.35 1.48 1.42 1.38 1.55 1.39 1.31 1.30 1.28 1.30 1.27 1.40 1.21 1.24 0.99 0.93 0.88 0.78 0.68 0.66 0.66 0.64 0.58 0.61 0.68 0.72 0.76 0.80 0.88 0.85
0.86 0.96 1.64 2.26 1.98 2.20 1.96 1.69 2.01 2.49 2.00 2.09 2.21 2.37 1.80 1.69 2.37 1.75 1.60 1.44 1.37 1.35 1.34 1.26 1.25 1.32 1.35 1.48 1.33 1.46 1.45 1.45 1.40 1.36 1.39 1.20 1.06 0.92 0.85 0.78 0.74 0.69 0.65 0.60 0.60 0.55 0.51 0.53 0.56 0.60 0.64 0.71
0.64 0.93 0.98 0.97 1.54 1.93 2.09 1.83 2.03 1.95 2.14 1.87 1.58 1.98 1.81 1.90 1.76 1.72 1.64 1.73 1.68 1.52 1.55 1.35 1.22 1.32 1.19 1.23 1.35 1.28 1.22 1.11 1.19 1.07 1.11 1.15 1.12 0.92 0.86 0.77 0.63 0.51 0.48 0.46 0.51 0.56 0.64 0.60 0.60 0.64 0.60 0.68
0.99 1.04 0.76 1.03 1.31 1.18 1.38 1.57 1.67 1.94 1.87 1.61 1.45 1.78 1.91 1.89 1.64 1.87 1.77 1.61 1.49 1.38 1.36 1.49 1.36 1.23 1.23 1.18 1.23 1.27 1.27 1.22 1.12 1.07 1.06 1.07 1.11 1.06 0.90 0.84 0.80 0.76 0.66 0.57 0.52 0.51 0.49 0.48 0.48 0.56 0.56 0.54
1.18 1.12 1.06 1.19 1.40 1.39 1.56 1.52 1.32 1.60 1.55 1.64 1.65 1.56 1.63 1.74 1.73 1.57 1.57 1.64 1.59 1.54 1.49 1.56 1.58 1.49 1.38 1.29 1.27 1.32 1.29 1.34 1.27 1.12 0.98 0.95 0.92 0.99 1.07 0.97 0.80 0.74 0.65 0.63 0.62 0.52 0.52 0.48 0.45 0.42 0.43 0.42
1.04 1.16 1.23 1.10 1.19 1.36 1.36 1.50 1.59 1.67 1.58 1.40 1.36 1.58 1.82 2.09 1.71 1.66 1.75 1.68 1.61 1.63 1.60 1.57 1.58 1.54 1.62 1.45 1.41 1.39 1.39 1.31 1.18 1.28 1.23 1.14 1.00 1.01 1.01 1.02 0.97 0.82 0.71 0.66 0.63 0.57 0.48 0.42 0.38 0.36 0.35 0.37
0.99 0.96 1.13 1.16 1.09 1.22 1.19 1.26 1.42 1.40 1.55 1.74 1.96 2.05 1.91 1.71 1.64 1.55 1.65 1.47 1.58 1.62 1.56 1.39 1.39 1.36 1.35 1.31 1.40 1.49 1.59 1.59 1.49 1.43 1.38 1.41 1.42 1.36 1.19 1.10 0.96 0.90 0.84 0.82 0.80 0.68 0.56 0.45 0.38 0.36 0.33 0.34
1.23 0.98 1.05 1.08 1.21 1.24 1.19 1.23 1.16 1.15 1.26 1.36 1.80 1.65 1.63 1.81 1.94 1.98 1.95 1.71 1.63 1.49 1.39 1.33 1.28 1.21 1.16 1.27 1.07 1.10 1.22 1.32 1.44 1.56 1.47 1.31 1.28 1.29 1.18 1.12 1.02 0.99 1.00 1.22 1.06 0.83 0.69 0.54 0.45 0.41 0.38 0.38
0.95 1.00 1.20 1.17 1.23 1.23 1.12 1.25 1.34 1.55 1.51 1.69 1.42 1.65 1.82 1.86 1.91 1.95 1.79 1.86 1.91 2.00 1.88 1.83 1.54 1.35 1.28 1.26 1.28 1.18 1.19 1.21 1.25 1.35 1.33 1.33 1.28 1.26 1.05 1.01 1.03 1.08 1.12 1.19 1.03 0.91 0.91 0.86 0.64 0.48 0.43 0.40
1.17 0.93 1.02 1.15 1.13 1.05 1.08 1.07 1.17 1.29 1.01 1.01 1.02 1.08 1.18 1.31 1.47 1.63 1.76 2.01 1.92 2.07 1.81 1.72 1.63 1.57 1.37 1.27 1.19 1.16 1.14 1.14 1.17 1.17 1.17 1.18 1.24 1.25 1.25 1.13 0.99 0.93 0.89 1.12 1.21 1.43 1.38 1.22 0.82 0.72 0.53 0.40
0.82 0.83 1.01 1.02 1.16 1.15 1.17 1.08 1.05 0.95 0.95 0.87 0.81 0.79 0.81 0.84 0.88 1.08 1.12 1.36 1.36 1.54 1.73 1.76 1.64 1.60 1.49 1.31 1.24 1.16 1.11 1.09 1.07 1.02 1.06 1.02 1.03 1.08 1.20 1.21 1.09 1.01 0.95 0.95 1.08 1.54 1.49 1.46 1.22 0.98 0.71 0.42
0.77 0.90 0.81 0.80 0.76 0.78 0.88 0.88 0.79 0.82 0.89 0.81 0.82 0.84 0.73 0.84 0.87 0.81 0.82 0.93 1.20 1.17 1.32 1.35 1.50 1.46 1.43 1.40 1.28 1.20 1.07 1.06 0.90 0.91 0.83 0.80 0.79 0.84 0.84 0.96 1.04 1.14 0.99 0.99 1.04 1.21 1.46 1.53 1.48 1.13 0.74 0.58
0.56 0.59 0.65 0.71 0.80 0.96 0.73 0.72 0.66 0.73 0.84 0.82 1.00 1.35 0.97 0.98 1.11 1.03 1.02 1.13 1.17 1.26 1.16 1.32 1.28 1.33 1.28 1.26 1.30 1.30 1.19 1.11 1.03 0.92 0.97 0.93 0.81 0.82 0.82 0.84 0.93 0.92 0.92 0.85 0.94 1.09 1.18 1.18 1.15 1.02 0.95 0.99